TimeHST,TemperatureF,Dew PointF,Humidity,Sea Level PressureIn,VisibilityMPH,Wind Direction,Wind SpeedMPH,Gust SpeedMPH,PrecipitationIn,Events,Conditions,WindDirDegrees,DateUTC
12:15 AM,69.8,66.2,88,30.12,10.0,NE,5.8,-,N/A,,Partly Cloudy,40,2013-05-16 10:15:00
12:33 AM,69.8,66.2,88,30.11,10.0,ENE,8.1,-,N/A,,Light Drizzle,60,2013-05-16 10:33:00
12:55 AM,70.3,65.3,84,30.11,10.0,NE,6.9,-,0.00,Rain,Light Rain,50,2013-05-16 10:55:00
1:19 AM,69.8,66.2,88,30.09,10.0,NE,10.4,-,N/A,,Clear,50,2013-05-16 11:19:00
1:20 AM,69.8,66.2,88,30.09,10.0,NE,9.2,-,N/A,,Light Drizzle,50,2013-05-16 11:20:00
1:25 AM,69.8,66.2,88,30.09,10.0,NE,5.8,-,N/A,,Clear,50,2013-05-16 11:25:00
1:26 AM,69.8,66.2,88,30.09,10.0,NE,5.8,-,N/A,,Light Drizzle,50,2013-05-16 11:26:00
1:30 AM,69.8,66.2,88,30.09,10.0,NNE,4.6,-,N/A,,Clear,30,2013-05-16 11:30:00
1:38 AM,69.8,64.4,83,30.09,10.0,Calm,Calm,-,N/A,,Light Drizzle,0,2013-05-16 11:38:00
1:49 AM,69.8,66.2,88,30.09,10.0,Variable,4.6,-,N/A,,Scattered Clouds,0,2013-05-16 11:49:00
1:55 AM,70.3,65.3,84,30.09,10.0,ENE,6.9,-,0.00,,Scattered Clouds,70,2013-05-16 11:55:00
1:57 AM,69.8,66.2,88,30.09,10.0,ENE,9.2,-,N/A,,Light Drizzle,70,2013-05-16 11:57:00
2:06 AM,69.8,64.4,83,30.08,10.0,ENE,9.2,-,N/A,,Scattered Clouds,70,2013-05-16 12:06:00
2:37 AM,69.8,64.4,83,30.07,10.0,NE,10.4,-,N/A,,Light Drizzle,50,2013-05-16 12:37:00
2:47 AM,69.8,64.4,83,30.07,10.0,NE,8.1,-,N/A,,Partly Cloudy,40,2013-05-16 12:47:00
2:55 AM,69.8,64.6,83,30.07,10.0,NNE,5.8,-,0.00,Rain,Light Rain,30,2013-05-16 12:55:00
3:51 AM,68.0,64.4,88,30.06,10.0,WNW,4.6,-,N/A,,Partly Cloudy,300,2013-05-16 13:51:00
3:55 AM,68.2,65.1,90,30.06,10.0,WNW,5.8,-,0.01,,Partly Cloudy,290,2013-05-16 13:55:00
4:36 AM,68.0,66.2,94,30.07,10.0,NNE,3.5,-,N/A,,Light Drizzle,30,2013-05-16 14:36:00
4:55 AM,68.5,64.9,88,30.07,10.0,WNW,4.6,-,0.00,,Light Drizzle,300,2013-05-16 14:55:00
4:58 AM,68.0,64.4,88,30.07,10.0,West,4.6,-,N/A,,Partly Cloudy,280,2013-05-16 14:58:00
5:55 AM,68.2,63.9,86,30.08,10.0,North,3.5,-,0.00,,Partly Cloudy,350,2013-05-16 15:55:00
6:55 AM,67.3,63.9,89,30.10,10.0,WNW,3.5,-,N/A,,Partly Cloudy,290,2013-05-16 16:55:00
7:55 AM,72.5,65.5,79,30.11,10.0,ENE,6.9,-,N/A,,Clear,70,2013-05-16 17:55:00
8:55 AM,74.8,63.7,68,30.11,10.0,ENE,11.5,-,N/A,,Clear,70,2013-05-16 18:55:00
9:55 AM,77.5,63.0,61,30.11,10.0,East,9.2,-,N/A,,Scattered Clouds,90,2013-05-16 19:55:00
10:55 AM,78.3,61.9,57,30.10,10.0,East,13.8,18.4,N/A,,Scattered Clouds,100,2013-05-16 20:55:00
11:55 AM,79.5,61.5,54,30.09,10.0,East,19.6,23.0,N/A,,Partly Cloudy,100,2013-05-16 21:55:00
12:55 PM,79.9,61.7,54,30.07,10.0,East,16.1,25.3,N/A,,Mostly Cloudy,100,2013-05-16 22:55:00
1:55 PM,79.9,63.0,56,30.06,10.0,ENE,12.7,-,N/A,,Clear,70,2013-05-16 23:55:00
2:55 PM,79.9,61.0,52,30.04,10.0,ENE,16.1,-,N/A,,Clear,70,2013-05-17 00:55:00
3:55 PM,78.8,62.6,57,30.04,10.0,ENE,17.3,24.2,N/A,,Clear,70,2013-05-17 01:55:00
4:55 PM,77.7,62.6,60,30.04,10.0,ENE,10.4,-,N/A,,Clear,60,2013-05-17 02:55:00
5:55 PM,76.5,61.3,59,30.05,10.0,East,13.8,-,N/A,,Clear,80,2013-05-17 03:55:00
6:55 PM,73.2,62.2,68,30.07,10.0,ENE,6.9,-,N/A,,Clear,60,2013-05-17 04:55:00
7:55 PM,72.1,63.0,73,30.07,10.0,NE,11.5,-,N/A,,Clear,50,2013-05-17 05:55:00
8:55 PM,71.4,63.3,76,30.08,10.0,NE,10.4,-,N/A,,Clear,50,2013-05-17 06:55:00
9:55 PM,71.6,63.1,75,30.09,10.0,ENE,9.2,-,N/A,,Clear,60,2013-05-17 07:55:00
10:55 PM,70.9,63.5,77,30.09,10.0,East,4.6,-,N/A,,Scattered Clouds,80,2013-05-17 08:55:00
11:55 PM,70.5,63.3,78,30.08,10.0,NE,3.5,-,N/A,,Clear,50,2013-05-17 09:55:00